TimeCDT,TemperatureF,Dew PointF,Humidity,Sea Level PressureIn,VisibilityMPH,Wind Direction,Wind SpeedMPH,Gust SpeedMPH,PrecipitationIn,Events,Conditions,WindDirDegrees,DateUTC
12:15 AM,54.7,45.9,72,30.29,10.0,ESE,5.8,-,N/A,,Overcast,110,2013-05-26 05:15:00
12:35 AM,54.7,45.5,71,30.28,10.0,East,5.8,-,N/A,,Overcast,100,2013-05-26 05:35:00
12:55 AM,54.5,45.5,72,30.27,10.0,ESE,5.8,-,N/A,,Overcast,120,2013-05-26 05:55:00
1:15 AM,54.5,45.5,72,30.26,10.0,ESE,6.9,-,N/A,,Overcast,110,2013-05-26 06:15:00
1:35 AM,54.5,44.8,70,30.25,10.0,East,5.8,-,N/A,,Overcast,100,2013-05-26 06:35:00
1:55 AM,54.5,44.4,69,30.26,10.0,ESE,5.8,-,N/A,,Overcast,110,2013-05-26 06:55:00
2:15 AM,54.3,44.2,69,30.25,10.0,East,6.9,-,N/A,,Overcast,100,2013-05-26 07:15:00
2:35 AM,54.3,43.0,66,30.25,10.0,East,6.9,-,N/A,,Overcast,100,2013-05-26 07:35:00
2:55 AM,54.0,43.2,67,30.25,10.0,ESE,8.1,-,N/A,,Overcast,110,2013-05-26 07:55:00
3:15 AM,53.6,42.8,67,30.24,10.0,ESE,6.9,-,N/A,,Overcast,110,2013-05-26 08:15:00
3:35 AM,53.2,41.5,65,30.24,10.0,ESE,9.2,-,N/A,,Overcast,110,2013-05-26 08:35:00
3:55 AM,53.1,41.0,64,30.23,10.0,East,9.2,-,N/A,,Overcast,100,2013-05-26 08:55:00
4:15 AM,52.5,40.3,63,30.23,10.0,East,9.2,-,N/A,,Scattered Clouds,100,2013-05-26 09:15:00
4:35 AM,50.9,41.0,69,30.24,10.0,ESE,8.1,-,N/A,,Clear,110,2013-05-26 09:35:00
4:55 AM,51.8,40.5,65,30.24,10.0,East,5.8,-,N/A,,Mostly Cloudy,90,2013-05-26 09:55:00
5:15 AM,50.9,41.4,70,30.28,10.0,ESE,3.5,-,N/A,,Mostly Cloudy,120,2013-05-26 10:15:00
5:35 AM,50.5,41.9,72,30.28,10.0,East,3.5,-,N/A,,Overcast,100,2013-05-26 10:35:00
5:55 AM,50.2,41.9,73,30.28,10.0,ENE,4.6,-,N/A,,Overcast,70,2013-05-26 10:55:00
6:15 AM,49.5,42.6,77,30.28,10.0,ENE,4.6,-,N/A,,Overcast,60,2013-05-26 11:15:00
6:35 AM,50.5,42.8,75,30.28,10.0,ENE,3.5,-,N/A,,Overcast,60,2013-05-26 11:35:00
6:55 AM,50.9,43.0,74,30.27,10.0,East,4.6,-,N/A,,Scattered Clouds,90,2013-05-26 11:55:00
7:15 AM,51.8,42.6,71,30.25,10.0,East,6.9,-,N/A,,Clear,80,2013-05-26 12:15:00
7:35 AM,52.3,42.1,68,30.26,10.0,East,6.9,-,N/A,,Clear,90,2013-05-26 12:35:00
7:55 AM,53.8,42.1,65,30.28,10.0,East,5.8,-,N/A,,Clear,90,2013-05-26 12:55:00
8:15 AM,54.7,41.2,60,30.28,10.0,East,8.1,-,N/A,,Clear,90,2013-05-26 13:15:00
8:35 AM,55.4,41.0,58,30.28,10.0,East,8.1,-,N/A,,Clear,100,2013-05-26 13:35:00
8:55 AM,55.9,39.6,54,30.27,10.0,ESE,10.4,-,N/A,,Scattered Clouds,110,2013-05-26 13:55:00
9:15 AM,55.6,37.9,52,30.26,10.0,ESE,12.7,-,N/A,,Mostly Cloudy,110,2013-05-26 14:15:00
9:35 AM,55.9,35.4,46,30.25,10.0,ESE,17.3,-,N/A,,Overcast,120,2013-05-26 14:35:00
9:55 AM,56.3,35.1,45,30.24,10.0,ESE,13.8,-,N/A,,Overcast,110,2013-05-26 14:55:00
10:15 AM,57.6,36.0,44,30.24,10.0,ESE,11.5,18.4,N/A,,Overcast,110,2013-05-26 15:15:00
10:35 AM,58.6,35.2,42,30.24,10.0,ESE,11.5,19.6,N/A,,Overcast,110,2013-05-26 15:35:00
10:55 AM,59.7,35.2,40,30.23,10.0,ESE,11.5,-,N/A,,Scattered Clouds,110,2013-05-26 15:55:00
11:15 AM,59.5,36.0,41,30.23,10.0,ESE,10.4,-,N/A,,Mostly Cloudy,120,2013-05-26 16:15:00
11:35 AM,60.1,34.2,38,30.23,10.0,ESE,13.8,-,N/A,,Overcast,120,2013-05-26 16:35:00
11:55 AM,59.9,36.0,41,30.24,10.0,ESE,15.0,20.7,N/A,,Overcast,110,2013-05-26 16:55:00
12:15 PM,61.5,36.7,40,30.24,10.0,SE,11.5,16.1,N/A,,Overcast,140,2013-05-26 17:15:00
12:35 PM,62.6,35.4,36,30.24,10.0,SE,16.1,20.7,N/A,,Mostly Cloudy,130,2013-05-26 17:35:00
12:55 PM,63.0,35.4,36,30.23,10.0,SE,11.5,-,N/A,,Mostly Cloudy,130,2013-05-26 17:55:00
1:15 PM,64.8,35.2,33,30.22,10.0,SE,18.4,27.6,N/A,,Mostly Cloudy,130,2013-05-26 18:15:00
1:35 PM,65.1,36.0,34,30.22,10.0,ESE,15.0,24.2,N/A,,Scattered Clouds,120,2013-05-26 18:35:00
1:55 PM,64.6,35.1,33,30.22,10.0,SE,16.1,19.6,N/A,,Mostly Cloudy,140,2013-05-26 18:55:00
2:15 PM,64.8,36.7,35,30.21,10.0,SSE,11.5,18.4,N/A,,Overcast,150,2013-05-26 19:15:00
2:35 PM,64.2,37.8,38,30.20,10.0,SSE,17.3,23.0,N/A,,Overcast,150,2013-05-26 19:35:00
2:55 PM,64.0,37.4,37,30.19,10.0,SE,13.8,21.9,N/A,,Overcast,130,2013-05-26 19:55:00
3:15 PM,61.3,38.1,42,30.19,10.0,SSE,18.4,-,N/A,,Overcast,160,2013-05-26 20:15:00
3:35 PM,60.6,39.6,46,30.19,10.0,SSE,15.0,20.7,N/A,,Overcast,160,2013-05-26 20:35:00
3:55 PM,60.3,38.8,45,30.19,10.0,SSE,15.0,-,N/A,,Overcast,150,2013-05-26 20:55:00
4:15 PM,60.3,38.8,45,30.18,10.0,SE,12.7,20.7,N/A,,Overcast,140,2013-05-26 21:15:00
4:35 PM,60.3,39.2,46,30.18,10.0,SE,10.4,17.3,N/A,,Overcast,130,2013-05-26 21:35:00
4:55 PM,60.8,40.1,46,30.16,10.0,SE,10.4,-,N/A,,Overcast,130,2013-05-26 21:55:00
5:15 PM,61.2,41.2,48,30.16,10.0,ESE,11.5,-,N/A,,Overcast,120,2013-05-26 22:15:00
5:35 PM,61.5,41.2,47,30.16,10.0,SE,8.1,-,N/A,,Overcast,130,2013-05-26 22:35:00
5:55 PM,61.7,41.7,48,30.16,10.0,ESE,11.5,-,N/A,,Overcast,110,2013-05-26 22:55:00
6:15 PM,62.1,42.1,48,30.16,10.0,SE,9.2,-,N/A,,Overcast,130,2013-05-26 23:15:00
6:35 PM,61.7,40.8,46,30.16,10.0,SE,10.4,-,N/A,,Overcast,140,2013-05-26 23:35:00
6:55 PM,61.5,40.6,46,30.17,10.0,SE,10.4,-,N/A,,Overcast,130,2013-05-26 23:55:00
7:15 PM,61.2,41.0,47,30.18,10.0,SE,9.2,-,N/A,,Overcast,130,2013-05-27 00:15:00
7:35 PM,60.8,42.3,50,30.17,10.0,SE,6.9,-,N/A,,Overcast,130,2013-05-27 00:35:00
7:55 PM,60.8,41.4,49,30.17,10.0,SE,8.1,-,N/A,,Overcast,130,2013-05-27 00:55:00
8:15 PM,60.8,41.7,49,30.17,10.0,SE,6.9,-,N/A,,Overcast,140,2013-05-27 01:15:00
8:35 PM,60.3,41.5,50,30.17,10.0,SE,8.1,-,N/A,,Overcast,130,2013-05-27 01:35:00
8:55 PM,59.0,43.7,57,30.16,10.0,ESE,5.8,-,N/A,,Overcast,120,2013-05-27 01:55:00
9:15 PM,58.6,43.9,58,30.16,10.0,ESE,6.9,-,N/A,,Overcast,120,2013-05-27 02:15:00
9:35 PM,58.8,43.9,58,30.16,10.0,SE,3.5,-,N/A,,Overcast,130,2013-05-27 02:35:00
9:55 PM,58.8,43.9,58,30.16,10.0,ESE,3.5,-,N/A,,Overcast,120,2013-05-27 02:55:00
10:15 PM,58.1,45.3,62,30.16,10.0,ESE,4.6,-,N/A,,Overcast,110,2013-05-27 03:15:00
10:35 PM,58.1,44.6,61,30.16,10.0,East,4.6,-,N/A,,Overcast,100,2013-05-27 03:35:00
10:55 PM,58.1,45.1,62,30.16,10.0,East,5.8,-,N/A,,Overcast,100,2013-05-27 03:55:00
11:15 PM,58.1,45.1,62,30.14,10.0,East,6.9,-,N/A,,Overcast,100,2013-05-27 04:15:00
11:35 PM,57.7,45.3,63,30.12,10.0,East,5.8,-,N/A,,Overcast,90,2013-05-27 04:35:00
11:55 PM,58.1,45.3,62,30.10,10.0,East,6.9,-,N/A,,Overcast,100,2013-05-27 04:55:00